RH
23 20 20 44 44 47 71 64 58 51 43 42 49 48 35 30 28 46 44 30 32 32 33 35 35 33 32 37 34 37 29 24 22 21 17 16 18 17 18 22 22 21 20 17 17 17 16
57 41 29 28 28 30 42 36 39 43 45 44 54 56 53 41 33 30 30 29 29 31 32 33 34 33 30 31 29 27 34 36 33 29 23 16 16 18 18 17 19 19 22 22 22 22 19
58 65 64 51 38 34 33 37 42 41 40 47 60 65 62 52 44 42 32 31 31 31 31 32 35 35 34 31 36 37 31 29 32 29 29 24 17 17 18 19 18 19 19 19 22 25 26
100 98 74 63 58 57 61 62 53 49 48 51 51 66 67 67 62 62 50 40 34 34 35 42 43 38 40 38 36 43 38 32 33 28 24 25 24 18 19 20 22 21 21 21 21 22 23
100 100 100 100 91 71 77 86 67 64 62 60 47 36 38 64 78 75 70 60 51 44 53 49 41 38 42 42 44 44 44 39 34 31 28 26 25 23 22 22 24 24 21 24 25 25 26
98 100 100 100 100 100 100 84 75 79 77 71 56 50 41 43 58 67 65 61 57 57 53 48 40 40 47 53 55 53 51 46 40 30 32 32 30 27 26 25 25 23 22 22 26 25 29
81 97 95 92 95 96 96 92 86 77 70 57 59 70 55 45 44 48 53 56 59 57 52 51 51 52 48 57 58 56 56 56 48 42 40 37 32 29 27 26 24 23 23 23 26 27 27
90 84 100 100 100 100 100 96 89 76 74 57 51 61 60 55 58 55 52 56 53 52 55 58 66 73 69 62 59 58 54 50 46 39 34 31 30 33 30 28 30 33 30 31 32 30 34
81 90 99 91 98 93 99 87 80 65 58 52 53 47 52 71 72 73 76 79 74 75 77 62 60 59 59 55 52 53 51 48 43 39 37 37 41 38 41 38 34 32 30 32 36 34 38
98 91 83 89 100 100 97 86 88 81 69 68 53 52 48 59 77 84 74 64 54 51 54 62 66 67 67 62 54 56 62 66 62 60 58 55 55 54 50 48 45 43 40 38 42 40 35
100 96 97 100 100 100 100 95 85 84 73 64 50 50 56 50 61 78 74 69 65 60 57 82 86 82 76 70 62 66 67 67 67 64 60 55 48 42 44 41 39 39 37 38 42 39 33
100 100 100 100 100 100 100 99 86 74 74 44 51 63 65 77 75 68 64 59 52 59 61 62 67 58 54 63 69 67 57 52 47 53 48 47 59 51 40 34 35 36 31 29 30 40 44
100 100 100 100 100 100 100 100 93 73 65 50 42 54 55 64 64 59 58 61 51 64 72 75 78 71 60 60 65 65 66 71 62 59 55 57 59 51 42 34 29 31 27 32 32 45 45
100 100 100 100 100 100 100 100 100 89 67 84 65 65 58 47 51 64 70 67 57 45 46 57 72 80 74 68 65 70 68 62 73 71 76 74 58 59 54 46 36 30 26 24 23 24 19
92 95 100 100 100 100 100 100 100 100 89 88 79 83 89 60 97 98 85 88 73 61 70 93 92 77 82 88 87 79 74 71 63 73 75 69 65 56 54 46 38 32 27 23 20 19 19
100 100 73 95 100 100 100 100 100 100 94 97 100 100 100 100 100 100 100 100 95 77 76 91 76 64 60 50 66 66 44 54 56 61 67 62 57 56 51 52 44 36 28 21 19 21 34
100 100 98 70 68 80 100 100 100 100 100 96 92 100 100 100 90 85 86 85 64 74 100 100 100 100 88 73 52 48 54 51 47 57 49 51 74 66 66 52 38 31 26 24 56 63 42
87 100 100 100 86 69 57 65 74 88 93 100 100 99 96 97 100 100 100 91 66 58 88 100 99 90 83 73 73 69 72 71 78 75 62 83 74 67 60 46 36 29 26 64 88 63 49
100 97 100 100 100 92 83 62 38 33 39 53 73 65 65 81 80 90 91 82 66 66 86 100 97 74 82 56 59 63 74 83 99 79 66 68 76 74 47 39 39 30 58 100 83 68 52
100 100 100 100 100 100 100 100 93 70 54 38 35 39 64 46 80 97 86 63 77 100 94 100 92 87 61 61 55 56 83 81 80 88 76 58 55 50 60 71 62 61 100 95 79 64 54
100 100 94 97 100 100 100 100 100 100 99 95 72 59 46 57 60 52 49 54 85 98 94 100 100 100 91 72 67 76 82 75 82 78 62 50 39 58 76 63 74 100 100 88 74 78 67
100 100 95 82 100 100 100 100 100 100 100 100 92 85 78 100 82 56 70 100 100 100 100 100 100 95 91 84 83 98 89 84 67 64 55 62 78 69 72 80 100 96 100 86 78 76 50
100 100 100 100 99 77 83 98 100 100 100 100 100 100 100 100 93 100 100 100 100 89 100 100 100 93 84 70 69 87 96 100 97 73 78 79 83 69 67 100 100 100 86 84 82 71 60
100 98 100 100 100 100 100 100 100 100 100 100 100 100 99 100 100 100 100 100 99 80 100 83 100 93 99 94 96 98 91 74 94 100 99 100 90 77 82 100 92 80 75 81 66 59 64
100 100 100 100 98 95 100 100 100 100 100 100 100 100 100 96 100 100 100 100 100 100 95 84 96 90 97 100 100 90 100 100 100 100 99 94 98 100 100 100 99 76 76 54 56 62 86
100 100 100 86 100 86 71 92 94 100 100 100 100 100 100 100 100 100 100 92 100 100 100 100 100 100 100 100 99 100 100 100 90 90 99 100 100 100 100 87 82 80 56 53 62 64 72
100 100 100 100 100 100 97 86 88 80 100 100 100 100 100 100 100 100 100 100 100 100 100 100 100 100 100 100 100 100 100 100 100 97 100 100 100 100 94 89 67 70 58 58 60 67 59
100 100 100 100 100 100 100 100 97 95 98 98 100 100 100 100 100 100 100 100 100 100 100 100 100 100 100 100 100 100 100 100 100 100 100 100 100 98 92 79 56 58 58 61 61 54 55
100 100 100 100 100 100 100 100 100 100 100 100 100 100 100 100 100 100 100 100 100 100 100 100 100 100 100 100 100 100 100 100 100 100 100 100 100 98 80 54 61 53 56 58 56 50 44
Wind_Speed
37 37 36 35 31 31 28 27 27 27 24 26 23 23 22 20 20 20 20 21 20 21 20 20 21 20 22 20 18 18 20 21 23 21 18 19 20 21 21 20 19 18 18 15 8 1 5
37 39 38 38 38 37 36 37 34 32 30 27 28 27 26 25 23 22 22 23 23 23 23 24 24 25 26 22 20 18 18 19 21 21 20 15 13 16 15 17 17 16 15 13 12 10 6
37 38 38 39 38 37 36 36 33 33 30 27 25 27 29 27 26 25 25 24 25 26 26 26 26 26 26 23 20 20 21 20 22 21 17 16 12 10 11 11 9 12 13 12 11 12 14
42 40 39 39 38 37 35 32 31 30 29 27 25 24 28 28 28 27 26 27 27 27 26 27 27 27 25 24 24 24 25 22 21 20 16 15 15 12 11 12 10 9 5 7 8 10 11
46 44 42 40 38 35 32 32 33 32 31 29 28 27 25 27 29 29 28 29 28 28 26 27 27 27 27 27 28 28 29 25 23 21 18 17 16 17 16 15 16 14 13 12 11 13 14
50 49 47 44 41 39 36 36 33 31 29 30 31 31 30 27 28 30 30 27 28 29 30 30 31 30 30 29 31 30 30 28 27 24 21 20 21 22 21 20 20 21 18 18 18 19 21
52 52 51 49 46 44 42 37 34 32 29 28 28 31 32 31 30 29 29 29 30 32 33 35 35 35 35 34 34 34 30 29 27 24 23 24 24 22 23 23 24 24 24 24 24 25 28
55 53 50 47 43 40 39 38 36 35 34 34 34 32 30 32 35 34 34 35 36 37 38 39 39 38 37 36 34 32 29 27 27 27 27 27 28 28 28 27 27 29 30 29 30 30 33
58 57 55 51 49 46 44 43 42 40 38 36 35 35 34 32 33 35 37 38 38 38 37 37 35 35 34 33 32 31 30 31 32 33 34 34 35 35 35 35 35 36 36 38 38 40 43
63 63 59 55 52 51 48 49 45 43 43 41 40 38 36 37 34 34 34 35 38 39 36 35 35 34 34 34 35 35 36 38 39 40 42 41 40 40 41 42 42 42 42 43 46 49 49
67 65 63 60 56 56 55 54 51 47 45 43 40 39 37 36 38 39 40 42 40 40 38 39 40 39 40 40 40 41 42 43 44 45 45 45 45 45 46 48 49 48 49 51 53 55 56
68 69 67 66 62 60 59 56 52 49 47 42 40 39 39 39 39 40 41 41 41 42 43 43 44 44 45 45 45 46 49 51 51 49 47 44 47 51 52 53 54 54 55 55 57 60 60
75 73 71 70 67 63 61 59 53 50 48 45 39 39 40 38 40 38 37 40 41 44 45 46 48 48 49 49 49 52 54 55 54 52 53 55 57 57 58 59 57 57 59 59 59 64 65
77 74 74 69 67 66 63 63 59 53 47 44 45 45 42 39 38 40 40 41 40 42 44 46 49 50 51 53 55 56 57 58 57 58 61 63 63 64 62 61 61 64 64 64 62 62 62
79 76 78 73 66 67 65 65 61 56 54 51 50 50 47 47 44 44 46 45 46 49 50 52 53 54 58 59 59 59 61 61 62 63 65 65 66 69 69 69 68 67 66 68 67 64 63
85 86 82 80 73 71 69 68 68 61 59 58 58 55 54 54 51 52 51 54 56 58 57 57 57 59 60 63 64 65 66 66 66 69 69 70 70 73 72 71 69 72 73 76 78 75 74
89 89 87 84 80 77 75 72 72 70 67 63 62 60 57 57 57 58 60 62 61 58 60 62 63 65 63 65 65 67 70 71 72 74 73 72 70 72 73 73 75 80 84 78 75 82 81
95 92 89 89 86 84 82 79 75 72 70 70 69 69 67 64 62 63 65 64 65 63 67 71 72 69 70 70 70 69 72 73 74 73 72 73 72 74 75 77 85 84 83 77 86 83 87
97 95 88 87 86 84 84 83 80 80 76 75 75 74 70 70 70 69 69 67 67 68 71 72 75 72 71 73 74 77 74 72 75 76 74 75 78 80 83 87 85 86 78 83 90 91 93
105 99 93 88 88 86 84 84 81 80 82 83 81 80 75 76 75 76 76 71 68 71 74 77 78 73 75 75 79 79 74 76 77 78 77 79 81 85 87 87 80 77 81 91 96 97 97
112 106 102 97 93 88 84 86 85 87 86 85 85 83 84 84 85 84 81 73 76 76 76 80 77 78 77 76 77 79 78 80 81 83 85 83 84 85 87 84 83 79 94 101 101 97 100
113 107 105 104 101 92 91 85 83 82 85 89 87 84 83 85 85 76 77 79 77 76 78 80 81 78 78 75 76 77 82 84 82 86 87 86 84 85 85 86 83 88 99 104 102 104 110
115 111 107 103 99 96 95 93 88 85 86 89 86 86 86 87 84 79 80 80 79 76 79 79 84 82 83 84 81 81 81 86 88 89 92 91 90 89 83 87 89 94 100 103 106 110 116
118 111 111 107 104 98 99 96 93 92 93 91 91 89 88 85 84 85 85 83 84 84 84 86 88 88 80 77 80 79 84 87 89 88 91 92 93 91 88 93 95 99 101 105 110 114 118
124 118 115 113 113 107 101 100 99 101 99 98 97 97 93 92 90 87 88 86 88 91 93 96 90 86 85 84 86 84 83 83 86 89 91 91 92 94 99 98 100 103 108 115 119 113 118
122 123 123 117 116 114 114 105 102 106 105 103 101 97 95 91 92 95 98 98 97 96 91 88 86 89 87 88 87 86 87 91 90 90 90 92 98 101 100 106 107 107 115 120 119 119 121
123 120 118 115 116 117 113 110 106 105 108 107 105 105 103 100 97 98 98 96 97 93 91 91 90 92 88 89 88 89 91 89 91 90 93 99 99 104 108 111 111 117 122 122 126 127 123
127 121 117 116 117 116 118 114 112 109 107 108 107 106 106 104 103 103 101 100 94 92 93 93 93 93 90 89 89 90 91 93 94 93 95 100 107 109 112 115 120 122 124 128 130 127 124
127 124 118 113 110 108 103 109 113 113 111 109 109 103 105 98 95 98 95 95 91 87 88 90 92 93 90 91 94 95 95 94 94 94 101 105 111 114 119 121 125 128 131 131 129 124 120
Wind_Direction
237 237 241 246 252 257 253 263 273 284 292 281 269 274 275 277 274 279 289 299 305 308 315 327 337 349 353 358 2 357 360 1 1 2 5 11 18 26 30 28 32 39 36 40 50 129 222
243 245 246 248 251 252 256 266 271 277 277 279 273 270 275 272 276 277 281 287 296 303 309 318 322 331 336 345 352 356 353 355 353 351 349 354 3 12 23 29 27 29 21 20 17 11 12
248 250 249 251 253 255 260 265 267 274 276 273 266 269 273 276 275 278 279 282 288 294 301 308 312 317 323 329 340 343 342 344 346 343 341 336 334 340 354 10 19 21 19 14 355 341 332
252 251 253 253 254 254 257 261 265 267 268 265 260 272 266 269 274 280 279 278 281 288 293 299 304 311 318 325 327 328 331 332 336 338 336 335 322 308 315 318 333 331 333 348 340 324 311
246 249 252 254 255 255 255 255 258 259 262 262 262 268 272 272 274 278 283 281 280 284 290 298 306 310 315 318 320 319 321 321 326 326 324 325 324 312 301 291 298 304 305 304 292 294 297
242 243 246 248 250 252 249 252 255 253 254 256 260 266 269 270 271 276 282 281 282 287 293 297 301 305 308 310 312 314 313 314 316 316 310 311 315 313 306 293 283 287 290 291 296 292 287
243 243 244 246 246 248 248 250 249 251 251 254 263 264 267 271 272 275 275 278 281 286 291 294 297 299 301 302 304 305 303 301 301 304 304 303 304 303 303 300 293 286 286 289 283 287 291
244 244 245 243 243 245 243 246 250 253 254 261 267 267 267 272 271 270 273 276 279 284 287 291 292 295 296 298 300 300 297 293 292 295 296 296 300 301 299 296 289 288 285 284 284 280 282
244 243 244 245 246 247 248 251 252 256 260 264 269 271 269 270 273 272 273 276 280 284 287 290 293 294 296 298 299 299 299 300 301 300 300 300 299 300 301 301 300 296 287 278 278 281 280
245 244 243 244 247 250 250 251 251 255 261 265 269 270 269 268 269 272 274 279 284 285 288 292 293 295 296 297 299 300 301 300 299 299 300 300 302 302 301 300 298 296 293 288 283 285 285
246 246 245 245 245 249 253 252 254 257 261 263 265 269 272 271 273 273 277 280 283 286 288 289 287 290 293 296 300 301 300 300 299 298 297 298 299 300 299 299 298 294 294 291 287 287 284
245 246 245 247 247 248 251 251 254 257 257 259 262 265 270 272 275 277 281 283 285 286 287 288 288 290 293 294 295 295 297 298 300 298 297 297 301 304 304 302 296 294 295 294 290 287 286
244 246 246 244 246 245 246 249 252 251 255 259 257 259 262 265 269 273 279 284 288 287 287 288 287 290 292 291 294 296 297 297 298 296 296 297 299 300 300 301 297 294 295 291 291 286 287
242 243 242 239 243 244 247 248 246 247 249 255 255 260 262 262 265 267 273 278 283 284 286 288 288 288 290 289 294 294 296 296 295 296 297 296 297 298 298 297 294 295 297 295 294 291 292
243 241 238 238 244 247 246 248 243 247 252 255 256 261 261 261 263 269 277 281 284 290 288 287 287 290 291 292 293 294 294 294 293 292 293 295 297 297 296 295 295 295 294 295 294 295 298
240 246 241 237 240 244 247 248 244 247 253 258 260 264 266 264 264 269 278 284 288 289 287 288 288 291 290 293 291 292 294 293 292 292 293 295 295 296 294 293 292 291 292 294 297 302 306
236 240 243 244 242 243 246 247 249 252 255 259 261 260 261 265 268 270 275 279 282 286 285 285 288 289 287 288 291 290 290 292 292 291 292 293 294 294 292 292 293 294 296 298 301 304 309
234 237 241 243 245 246 248 247 249 251 256 258 258 261 262 260 265 271 276 275 279 286 286 287 292 287 286 288 289 289 288 288 287 289 292 290 291 293 294 292 297 296 298 298 302 306 306
233 234 238 242 244 244 248 251 253 255 255 258 261 263 263 266 269 271 274 277 279 284 286 287 291 287 288 290 290 290 288 288 287 288 289 290 291 291 293 295 296 298 298 299 305 305 305
233 233 234 238 243 244 247 251 254 256 258 259 262 265 268 267 268 270 272 276 278 282 283 285 287 285 287 291 291 289 285 285 285 286 288 292 292 293 294 298 297 298 297 301 303 306 307
235 235 233 235 239 240 246 250 253 254 258 259 260 263 264 268 269 269 271 277 280 280 282 284 283 284 288 290 290 285 285 285 285 288 291 292 295 295 295 297 297 296 299 300 305 304 305
236 237 238 237 237 241 245 245 251 254 255 260 262 265 266 268 270 273 275 273 276 276 280 282 279 285 288 288 287 285 287 285 286 289 292 295 294 293 295 298 296 297 301 304 304 303 304
235 238 239 241 242 245 247 248 250 253 257 258 261 264 265 266 269 271 273 273 275 278 281 279 281 286 288 289 290 285 287 290 291 293 294 296 294 293 296 294 294 299 304 303 302 303 303
236 237 240 244 244 243 244 247 249 251 253 258 260 262 262 264 268 272 273 273 275 277 280 282 280 284 284 285 286 289 288 290 292 292 293 292 293 294 293 293 297 301 302 300 301 303 303
235 238 240 245 247 244 245 245 246 250 252 255 259 261 262 265 268 269 270 275 276 278 279 282 282 281 283 283 288 288 290 291 291 294 293 293 294 293 294 295 297 302 301 302 303 305 303
235 237 240 242 247 249 248 246 248 247 251 253 257 261 262 265 267 268 271 275 280 281 280 279 281 281 282 284 287 289 288 289 293 293 294 292 292 295 295 296 298 299 301 303 304 305 304
238 239 241 244 247 251 250 250 251 251 254 254 258 261 263 265 268 269 272 275 277 277 277 276 280 282 281 285 287 287 288 290 291 293 292 292 292 294 296 296 299 300 302 304 305 306 306
238 239 241 241 244 245 250 251 252 252 254 257 259 260 263 265 266 270 271 274 273 273 276 277 279 283 283 285 286 286 287 289 292 292 291 291 294 295 296 298 300 301 303 305 306 307 307
238 238 240 240 242 242 244 248 250 253 254 256 257 257 262 264 265 268 270 271 271 271 274 276 280 280 282 282 284 286 287 289 289 291 291 293 294 294 295 301 303 305 306 307 307 306 304